Airfield :
LOGIN :

Register | Disclaimer

   EN    FR    IT 

 










Legend :    VFR   Marginal VFR   IFR   Intensive IFR   Very Intensive IFR
Visi :
Ceiling :
>= 8 km
>= 3000ft
5 to 8 km
1000 to 3000 ft
1500m to 5 km
500 to 1000 ft
800 to 1500m
200 to 500 ft
< 800m
< 200 ft
Symbols :   Thunderstorms  Fog  Heavy snow  Heavy precipitations  Wind > 20 kt
SIGMETs :     Misc.  Thunderstorms  Icing  Turbulence  Mountain Waves  Volcanic Ashes






- Airport Elevation : 156 ft
- IATA code : LCC


LIBN - Lecce Galatine (military)

CURRENT METAR :
  • 230855Z 17008KT 9999 FEW015 22/18 Q1019 RMK BKN SCT080 VIS MIN 9999 WIND THR14 18008KT WIND THR32 18008KT BLU

EXPIRED METARs :
  • 230755Z 20007KT 9999 SCT010 21/19 Q1019 RMK BKN SCT100 BKN200 VIS MIN 9999 WIND THR14 20008KT WIND THR32 20010KT BLU
  • 230655Z 18006KT 9999 FEW015 20/18 Q1019 RMK BKN SCT070 VIS MIN 9999 WIND THR14 18006KT WIND THR32 19005KT BLU

Expired Forecast.



MET'MAP, your aeronautical weather chart ! - Copyright ORBIFLY December 2007 - Disclaimer

ORBIFLY MET'MAP TEAM :

Programming & Development : Alexandra Zaïnal
Concept & original design : Baudouin d'Aumeries
Assistance for programming : Marc-Olivier Méhu
Technical & hardware support : Manuel Goepfert

Contact : metmap@orbifly.com




SOURCES & CREDITS :

   NOAA